Location: Shenandoah County Park
(38.9356°N, 78.4524°W)
Time: 18:13:14
(UTC-04:00)

UNISAT 6 - Visible Passes

Search period start: 31 March 2023 00:00
Search period end: 10 April 2023 00:00
Orbit: 602 x 680 km, 97.7° (Epoch: 31 March)

Date Brightness Start Highest point End Pass type
(mag) Time Alt. Az. Time Alt. Az. Time Alt. Az.
31 Mar ? 05:40:12 10° SSE 05:44:24 48° ENE 05:48:45 10° N visible
01 Apr ? 06:03:43 10° SSE 06:08:06 90° S 06:12:38 10° NNW visible
02 Apr ? 04:53:10 10° E 04:55:47 16° ENE 04:58:27 10° NNE visible
02 Apr ? 06:27:39 10° S 06:31:53 48° W 06:36:17 10° NNW visible
03 Apr ? 05:15:36 10° SE 05:19:18 27° ENE 05:23:06 10° NNE visible
03 Apr ? 20:21:22 10° NW 20:23:06 12° WNW 20:24:51 10° W visible
04 Apr ? 05:38:38 10° SSE 05:42:53 47° ENE 05:47:15 10° N visible
05 Apr ? 06:02:07 10° SSE 06:06:33 88° E 06:11:08 10° NNW visible
06 Apr ? 04:51:36 10° E 04:54:13 15° ENE 04:56:52 10° NNE visible
07 Apr ? 05:13:58 10° SE 05:17:41 26° ENE 05:21:29 10° NNE visible
07 Apr ? 20:19:39 10° NW 20:21:29 12° WNW 20:23:18 10° W visible
08 Apr ? 05:36:57 10° SE 05:41:13 47° ENE 05:45:38 10° N visible
09 Apr ? 06:00:22 10° SSE 06:04:51 86° ENE 06:09:28 10° N visible
